| time (UTC) | temp C | wind direction | speed KPH | gust KPH | rain 1hr cm | rain 24hr cm | rain mn cm | humidity % | barometer mb |
| 20260504020017 | 12 | 231 | 9.7 | 12.9 | 0.00 | 0.00 | 0.00 | 48 | 1001.1 |
| 20260504014512 | 12 | 219 | 6.4 | 11.3 | 0.00 | 0.00 | 0.00 | 48 | 1001.1 |
| 20260504013011 | 14 | 243 | 6.4 | 9.7 | 0.00 | 0.00 | 0.00 | 42 | 1001.2 |
| 20260504011509 | 17 | 233 | 6.4 | 14.5 | 0.00 | 0.00 | 0.00 | 36 | 1001.4 |
| 20260504010007 | 18 | 228 | 4.8 | 11.3 | 0.00 | 0.00 | 0.00 | 34 | 1001.5 |
| 20260504004507 | 19 | 273 | 8.0 | 12.9 | 0.00 | 0.00 | 0.00 | 30 | 1001.6 |
| 20260504003005 | 20 | 240 | 9.7 | 17.7 | 0.00 | 0.00 | 0.00 | 28 | 1001.7 |
| 20260504001504 | 20 | 262 | 12.9 | 22.5 | 0.00 | 0.00 | 0.00 | 28 | 1001.8 |
| 20260504000006 | 20 | 270 | 9.7 | 24.1 | 0.00 | 0.00 | 0.00 | 26 | 1001.8 |
| 20260503234503 | 20 | 262 | 14.5 | 22.5 | 0.00 | 0.00 | 0.00 | 25 | 1002.1 |
| 20260503233102 | 20 | 246 | 16.1 | 30.6 | 0.00 | 0.00 | 0.00 | 25 | 1002.3 |
| 20260503231559 | 21 | 256 | 14.5 | 25.7 | 0.00 | 0.00 | 0.00 | 25 | 1002.3 |
| 20260503230100 | 21 | 231 | 12.9 | 24.1 | 0.00 | 0.00 | 0.00 | 25 | 1002.6 |
| 20260503224555 | 21 | 267 | 20.9 | 27.4 | 0.00 | 0.00 | 0.00 | 24 | 1002.8 |
| 20260503223055 | 21 | 260 | 19.3 | 29.0 | 0.00 | 0.00 | 0.00 | 24 | 1003.0 |
| 20260503221552 | 21 | 285 | 17.7 | 29.0 | 0.00 | 0.00 | 0.00 | 25 | 1003.1 |
| 20260503220053 | 21 | 282 | 17.7 | 29.0 | 0.00 | 0.00 | 0.00 | 26 | 1003.3 |
| 20260503214549 | 21 | 298 | 12.9 | 25.7 | 0.00 | 0.00 | 0.00 | 25 | 1003.4 |
| 20260503213055 | 21 | 332 | 17.7 | 30.6 | 0.00 | 0.00 | 0.00 | 26 | 1003.5 |
| 20260503211544 | 21 | 264 | 8.0 | 25.7 | 0.00 | 0.00 | 0.00 | 27 | 1003.9 |
| 20260503210046 | 20 | 270 | 16.1 | 29.0 | 0.00 | 0.00 | 0.00 | 26 | 1004.1 |
| 20260503204543 | 20 | 252 | 14.5 | 33.8 | 0.00 | 0.00 | 0.00 | 28 | 1004.4 |
| 20260503203045 | 20 | 291 | 14.5 | 32.2 | 0.00 | 0.00 | 0.00 | 28 | 1004.8 |
| 20260503201541 | 21 | 322 | 17.7 | 27.4 | 0.00 | 0.00 | 0.00 | 27 | 1005.1 |
| 20260503200044 | 20 | 307 | 14.5 | 27.4 | 0.00 | 0.00 | 0.00 | 28 | 1005.4 |
| 20260503194539 | 20 | 297 | 9.7 | 25.7 | 0.00 | 0.00 | 0.00 | 31 | 1005.4 |
| 20260503193039 | 20 | 309 | 17.7 | 30.6 | 0.00 | 0.00 | 0.00 | 33 | 1005.6 |
| 20260503191534 | 20 | 309 | 19.3 | 32.2 | 0.00 | 0.00 | 0.00 | 34 | 1005.8 |
| 20260503190034 | 20 | 290 | 22.5 | 30.6 | 0.00 | 0.00 | 0.00 | 36 | 1006.1 |
| 20260503184533 | 20 | 300 | 11.3 | 29.0 | 0.00 | 0.00 | 0.00 | 36 | 1006.3 |
| 20260503183050 | 20 | 325 | 20.9 | 27.4 | 0.00 | 0.00 | 0.00 | 36 | 1006.5 |
| 20260503181530 | 19 | 295 | 20.9 | 27.4 | 0.00 | 0.00 | 0.00 | 37 | 1006.7 |
| 20260503180029 | 19 | 322 | 20.9 | 27.4 | 0.00 | 0.00 | 0.00 | 36 | 1006.8 |
| 20260503174526 | 18 | 273 | 14.5 | 25.7 | 0.00 | 0.00 | 0.00 | 37 | 1006.9 |
| 20260503173025 | 18 | 347 | 14.5 | 25.7 | 0.00 | 0.00 | 0.00 | 39 | 1007.0 |
| 20260503171521 | 17 | 334 | 11.3 | 25.7 | 0.00 | 0.00 | 0.00 | 39 | 1007.1 |
| 20260503081513 | 11 | 332 | 20.9 | 30.6 | 0.00 | 0.00 | 0.00 | 58 | 1005.4 |
| 20260503071507 | 11 | 308 | 22.5 | 30.6 | 0.00 | 0.00 | 0.00 | 58 | 1004.9 |
| 20260503054551 | 15 | 273 | 16.1 | 22.5 | 0.00 | 0.00 | 0.00 | 48 | 1004.3 |
| 20260503053041 | 15 | 287 | 9.7 | 19.3 | 0.00 | 0.00 | 0.00 | 47 | 1004.3 |
| 20260503051538 | 15 | 262 | 9.7 | 17.7 | 0.00 | 0.00 | 0.00 | 46 | 1004.3 |
| 20260503050037 | 15 | 246 | 12.9 | 17.7 | 0.00 | 0.00 | 0.00 | 46 | 1004.4 |
| 20260503044533 | 14 | 233 | 12.9 | 19.3 | 0.00 | 0.00 | 0.00 | 51 | 1004.4 |
| 20260503043033 | 14 | 248 | 12.9 | 20.9 | 0.00 | 0.00 | 0.00 | 50 | 1004.5 |
| 20260503041532 | 15 | 265 | 16.1 | 20.9 | 0.00 | 0.00 | 0.00 | 49 | 1004.5 |
| 20260503040036 | 15 | 249 | 11.3 | 19.3 | 0.00 | 0.00 | 0.00 | 48 | 1004.5 |
| 20260503034536 | 15 | 245 | 11.3 | 16.1 | 0.00 | 0.00 | 0.00 | 47 | 1004.6 |
| 20260503033032 | 16 | 198 | 14.5 | 22.5 | 0.00 | 0.00 | 0.00 | 43 | 1004.5 |
| 20260503031530 | 16 | 173 | 16.1 | 20.9 | 0.00 | 0.00 | 0.00 | 44 | 1004.6 |
| 20260503030028 | 15 | 186 | 16.1 | 20.9 | 0.00 | 0.00 | 0.00 | 46 | 1004.7 |
| 20260503024527 | 16 | 195 | 12.9 | 22.5 | 0.00 | 0.00 | 0.00 | 45 | 1004.9 |
| 20260503023025 | 18 | 195 | 22.5 | 40.2 | 0.00 | 0.00 | 0.00 | 39 | 1005.2 |
| 20260503021524 | 16 | 255 | 9.7 | 17.7 | 0.00 | 0.00 | 0.00 | 44 | 1005.2 |